NOOR 1A (44827 NORAD) Tracking and Keplerian Element Data

This shows tracking and keplerian element data for the satellite.

Feedback or suggestion? Click here.




ElementValue
Catalog44827
NameNOOR 1A
Epoch Orbit747
Epoch Day23.14007287
Epoch Year2020
RAAN251.9765
Inclination96.9981
Eccentricity0.0042844
Argument of Perigee76.8263
Mean Anonmoly283.7772
Mean Motion15.65687989
Decay Rate0.00017136
L11 44827U 19084D 20023.14007287 .00017136 00000-0 16294-3 0 9996
L22 44827 96.9981 251.9765 0042844 76.8263 283.7772 15.65687989 7476

Live tracking and technical data element details for NOOR 1A (NORAD 44827). NOOR 1A can be tracked NOW for your location showing map with azimuth and elevation plus other details from your city location.

Track the satellite on the map from your city or location and see movement details for azimuth, elevation, latitude, longitude, range, height, and movement on the map or in text.







IsCatalogInMostPopularTable: catalog: 44827, numindb: 7
Update: records affected: 1



GetName: 44827 NOOR 1A

Hit Count: updated at: Fri, 24 Jan 2020 14:46:05 GMT